415  
ASUS45 KCYS 220810  
RWRWY  
 
WYOMING REGIONAL WEATHER ROUNDUP  
NATIONAL WEATHER SERVICE CHEYENNE WY  
200 AM MDT FRI SEP 22 2017  
 
NOTE: "FAIR" INDICATES FEW OR NO CLOUDS BELOW 12,000 FEET  
WITH NO SIGNIFICANT WEATHER AND/OR S TO VISIBILITY
.  
 
WYZ001-220900-  
YELLOWSTONE NATIONAL PARK  
 
CITY SKY/WX TMP DP RH WIND PRES REMARKS
 
LK YELLOWSTONE NOT AVBL  
W YELLOWSTONE NOT AVBL  
 

 
WYZ002>013-054>058-071-098>099-220900-  
NORTHERN WYOMING  
 
CITY SKY/WX TMP DP RH WIND PRES REMARKS
 
JACKSON CLOUDY 33 32 96 CALM 29.81R  
CODY LGT RAIN 36 33 89 N12 29.89F WCI 28  
GREYBULL CLOUDY 41 38 89 NW17 29.84R  
WORLAND CLOUDY 43 37 79 NW14 29.83F  
SHERIDAN CLOUDY 45 40 82 NW6 29.92S  
BUFFALO CLOUDY 45 33 63 NW9 29.91S  
GILLETTE FAIR 41 34 76 N9 29.84F  
HULETT FAIR 45 32 61 NE6 29.86F  
NEWCASTLE FAIR 55 36 47 NE8 29.76R  
 

 
WYZ014>020-022>026-101>103-220900-  
CENTRAL WYOMING  
 
CITY SKY/WX TMP DP RH WIND PRES REMARKS
 
BIG PINEY CLOUDY 45 37 73 VRB3 29.80R  
PINEDALE LGT RAIN 43 41 93 W6 29.83R  
DUBOIS RAIN 36 36 100 SE3 29.80R  
LANDER N/A N/A N/A N/A MISG 29.79S  
RIVERTON FAIR 42 37 82 NE10 29.78S  
CASPER CLOUDY 41 33 73 NE12 29.85S  
DOUGLAS FAIR 42 33 70 NW12 29.83R  
 

 
WYZ021-027>030-104>119-220900-  
SOUTHERN WYOMING  
 
CITY SKY/WX TMP DP RH WIND PRES REMARKS
 
EVANSTON LGT RAIN 33 33 100 S6 29.83R VSB 3/4 WCI 28  
KEMMERER LGT RAIN 37 36 93 W7 29.82R WCI 32  
FORT BRIDGER CLOUDY 38 38 100 W18G26 29.84R WCI 28  
ROCK SPRINGS FAIR 43 36 76 NW7 29.79R  
DIXON FAIR 65 16 15 S15G25 29.79S  
RAWLINS FAIR 51 25 36 E6 29.78S  
SARATOGA FAIR 50 25 37 S7G25 29.81S  
LARAMIE FAIR 44 22 41 E7 29.84R  
CHEYENNE FAIR 52 37 56 N18G25 29.79R  
TORRINGTON FAIR 54 38 54 NW14 29.71R  
PINE BLUFFS FAIR 52 36 54 NW12G17 29.75R  
 

 
 
 
CLICK HERE TO GO TO PREVIOUS BULLETINS.

The Nexlab WY Page Main Text Page